This demonstration page uses our WeatherBlox Daily Observations layout. Learn more.

Left ArrowRight Arrow

Hourly Observations for April 25, 2015

Temp ( °F °C ) Dew Point ( °F °C ) Humidity (%) Winds ( mph kmh ) Pressure ( in mb ) Visibility ( mi km ) Precip ( " mm )
12:53 am 00:53 Cloudy 54 12.2 37 2.8 53 53 E 6 9 29.90 1013 10 16 0.00 0.03
1:53 am 01:53 Cloudy 53 11.7 36 2.2 52 52 E 3 6 29.90 1012 10 16 0.00 0.00
2:53 am 02:53 Cloudy with Light Rain 51 10.6 40 4.4 66 66 Calm 29.90 1013 10 16 0.00 0.03
3:53 am 03:53 Cloudy 50 10 44 6.7 80 80 Calm 29.88 1012 10 16 0.01 0.25
4:53 am 04:53 Cloudy 50 10 45 7.2 83 83 Calm 29.88 1012 10 16 0.00 0.00
5:53 am 05:53 Cloudy 49 9.4 43 6.1 80 80 E 7 11 29.83 1010 10 16 0.00 0.03
6:53 am 06:53 Cloudy 50 10 39 3.9 66 66 E 3 6 29.84 1010 10 16 0.00 0.00
7:53 am 07:53 Cloudy 51 10.6 37 2.8 59 59 VRB 3 6 29.82 1010 10 16 0.00 0.00
8:53 am 08:53 Cloudy 52 11.1 36 2.2 55 55 VRB 7 11 29.79 1009 10 16 0.00 0.00
9:53 am 09:53 Cloudy 51 10.6 38 3.3 61 61 ESE 7 11 29.78 1008 10 16 0.00 0.00
10:53 am 10:53 Cloudy with Light Rain 51 10.6 38 3.3 61 61 E 9 15 29.75 1007 10 16 0.00 0.03
11:53 am 11:53 Cloudy with Light Rain 50 10 43 6.1 77 77 E 10 17 29.75 1007 5 8 0.07 1.78
12:08 pm 12:08 Cloudy with Light Rain 50 10 45 7.2 83 83 E 7 11 29.77 1008 10 16 0.00 0.03
12:53 pm 12:53 Cloudy with Light Rain 49 9.4 42 5.6 77 77 E 13 20 29.73 1007 5 8 0.02 0.51
1:53 pm 13:53 Cloudy with Light Rain 47 8.3 44 6.7 90 90 E 12 19 29.69 1005 6 10 0.04 1.02
2:40 pm 14:40 Cloudy with Nearby Thunderstorms 45 7.2 45 7.2 100 100 ENE 10 17 29.71 1006 3 5 0.05 1.27
2:49 pm 14:49 Cloudy with Rain 45 7 45 7 100 100 E 14 22 29.71 1006 3 4 0.07 1.78
2:53 pm 14:53 Cloudy with Rain 44 6.7 44 6.7 100 100 E 13 20 29.68 1005 2 3 0.08 2.03
3:16 pm 15:16 Cloudy with Light Rain 44 6.7 44 6.7 100 100 ENE 16 26 29.71 1006 4 6 0.05 1.27
3:24 pm 15:24 Cloudy with Nearby Thunderstorms 43 6.1 43 6.1 100 100 E 12 19 29.71 1006 3 4 0.10 2.54
3:29 pm 15:29 Cloudy with Strong Thunderstorms 43 6.1 43 6.1 100 100 ENE 12 19 29.71 1006 2 3 0.12 3.05
3:32 pm 15:32 Cloudy with Strong Thunderstorms 43 6.1 43 6.1 100 100 ENE 9 15 29.71 1006 2 3 0.13 3.30
3:42 pm 15:42 Cloudy with Thunderstorms 43 6.1 43 6.1 100 100 NE 12 19 29.71 1006 3 5 0.15 3.81
3:45 pm 15:45 Cloudy with Nearby Thunderstorms 43 6.1 43 6.1 100 100 NNE 10 17 29.74 1007 3 4 0.16 4.06
3:53 pm 15:53 Cloudy with Nearby Thunderstorms 43 6.1 43 6.1 100 100 NNW 9 15 29.73 1007 3 4 0.18 4.57
4:16 pm 16:16 Cloudy with Nearby Thunderstorms 42 5.6 42 5.6 100 100 E 9 15 29.74 1007 3 5 0.07 1.78
4:18 pm 16:18 Cloudy with Nearby Thunderstorms 43 6.1 43 6.1 100 100 E 10 17 29.74 1007 3 4 0.08 2.03
4:23 pm 16:23 Cloudy with Rain 43 6.1 43 6.1 100 100 E 10 17 29.71 1006 3 4 0.08 2.03
4:27 pm 16:27 Cloudy with Light Rain 43 6.1 43 6.1 100 100 E 13 20 29.71 1006 3 5 0.08 2.03
4:37 pm 16:37 Cloudy with Light Rain 45 7.2 45 7.2 100 100 E 12 19 29.71 1006 7 11 0.08 2.03
4:53 pm 16:53 Cloudy 46 7.8 46 7.8 100 100 E 10 17 29.68 1005 10 16 0.08 2.03
5:08 pm 17:08 Cloudy 46 7.8 46 7.8 100 100 E 13 20 29.71 1006 10 16 0.00 0.00
5:53 pm 17:53 Cloudy with Light Rain 46 7.8 44 6.7 93 93 E 12 19 29.67 1005 10 16 0.01 0.25
6:53 pm 18:53 Cloudy 46 7.8 43 6.1 89 89 ENE 13 20 29.67 1005 10 16 0.01 0.25
7:53 pm 19:53 Cloudy 46 7.8 43 6.1 89 89 ENE 13 20 29.66 1005 10 16 0.00 0.00
8:08 pm 20:08 Cloudy 46 7.8 43 6.1 89 89 E 14 22 29.68 1005 10 16 0.00 0.00
8:53 pm 20:53 Cloudy 46 7.8 42 5.6 86 86 ENE 13 20 29.65 1004 10 16 0.00 0.00
9:53 pm 21:53 Cloudy 46 7.8 41 5 83 83 E 7 11 29.68 1005 10 16 0.00 0.00
10:14 pm 22:14 Cloudy 46 7.8 40 4.4 79 79 ENE 13 20 29.71 1006 10 16 0.00 0.00
10:53 pm 22:53 Cloudy 46 7.8 40 4.4 79 79 ENE 13 20 29.70 1006 10 16 0.00 0.00
11:37 pm 23:37 Cloudy 46 7.8 40 4.4 79 79 ENE 9 15 29.71 1006 10 16 0.00 0.00
11:53 pm 23:53 Cloudy 46 7.8 41 5 83 83 NE 15 24 29.70 1006 10 16 0.00 0.00

Powered by AerisWeather